User: anonymous   Login
Location: Dover
(39.1580°N, 75.5250°W)
Time: 09:06:22
(UTC-04:00)
Language:

Cosmos 1437 Rocket - Orbit

View from above orbital plane
View from above orbital plane
View from above satellite
View from above satellite

Ground track
Ground track

The orbit data is extracted from the following two-line orbital elements,

1 13771U 83003B   16211.54674619  .00000756  00000-0  44838-4 0  9995
2 13771  81.1605  14.9142 0041456 358.1969   1.9099 15.09453094825119
Epoch (UTC): 29 July 2016 13:07:18
Eccentricity: 0.0041456
inclination: 81.1605°
perigee height: 509 km
apogee height: 566 km
right ascension of ascending node: 14.9142°
argument of perigee: 358.1969°
revolutions per day: 15.09453094
mean anomaly at epoch: 1.9099°
orbit number at epoch: 82511

The dashed part of the orbit path shows where the satellite is in the earth's shadow,  

DLR